Flag for Switzerland Weather past 2 weeks in Aarau, Aargau, Switzerland

Now
45 °F

Cool.


Feels Like: 43 °F
Forecast: 34 / 58 °F
Wind: 5 mph from East

Location: Wynau

Current Time: Oct 24, 2014 at 1:29:12 PM

Latest Report: Oct 24, 2014 at 12:00 PM


Visibility: N/A

Pressure: 30.22 "Hg

Humidity: 81%

Dew point: 40 °F

Location of AarauLocation

Historic Weather in Aarau — Graph

°F

Aarau temperature yesterday

Maximum temperature yesterday: 53 °F (at 4:00 PM)
Minimum temperature yesterday: 40 °F (at 11:00 PM)
Average temperature yesterday: 46 °F

Past Weeks' High & Low Weather Summary

 TemperatureHumidityPressure
High73 °F (Oct 9, 4:00 PM)100% (Oct 10, 4:00 AM)30.34 "Hg (Oct 10, 4:00 AM)
Low35 °F (Oct 24, 5:00 AM)50% (Oct 21, 3:00 PM)29.76 "Hg (Oct 15, 5:00 PM)
Average55 °F89%30.02 "Hg
* Reported Oct 9 12:00 Noon — Oct 24 12:00 Noon, Aarau, Weather by CustomWeather, © 2014

Note: Actual official high and low records may vary slightly from our data, if they occured in-between our weather recording intervals... More about our weather records

Advertising

Aarau weather history for previous 24 hours

 ConditionsComfort  
Time TempWeatherWind HumidityBarometerVisibility
12:00 PM
Oct 24
45 °FCool.5 mph81%30.22 "HgN/A
11:00 AM43 °FQuite cool.1 mph94%30.23 "HgN/A
10:00 AM41 °FQuite cool.1 mph94%30.24 "HgN/A
9:00 AM38 °FChilly.1 mph100%30.25 "HgN/A
8:00 AM37 °FChilly.1 mph100%30.24 "HgN/A
7:00 AM37 °FChilly.1 mph100%30.24 "HgN/A
6:00 AM36 °FChilly.2 mph100%30.25 "HgN/A
5:00 AM35 °FChilly.2 mph100%30.25 "HgN/A
4:00 AM36 °FChilly.1 mph100%30.27 "HgN/A
3:00 AM37 °FChilly.No wind100%30.27 "HgN/A
2:00 AM37 °FChilly.2 mph99%30.27 "HgN/A
1:00 AM38 °FChilly.1 mph98%30.28 "HgN/A
12:00 AM39 °FChilly.2 mph96%30.28 "HgN/A
11:00 PM
Oct 23
40 °FQuite cool.No wind94%30.28 "HgN/A
10:00 PM41 °FQuite cool.1 mph92%30.28 "HgN/A
9:00 PM43 °FQuite cool.1 mph88%30.27 "HgN/A
8:00 PM47 °FCool.3 mph77%30.26 "HgN/A
7:00 PM49 °FCool.6 mph65%30.25 "HgN/A
6:00 PM50 °FCool.6 mph62%30.25 "HgN/A
5:00 PM51 °FCool.2 mph66%30.24 "HgN/A
4:00 PM53 °FCool.3 mph52%30.25 "HgN/A
3:00 PM52 °FCool.5 mph54%30.27 "HgN/A
2:00 PM52 °FCool.3 mph60%30.29 "HgN/A
1:00 PM51 °FCool.2 mph62%30.31 "HgN/A
Weather by CustomWeather, © 2014

See weather overviewHow to use our weather pages